レモン彗星

C/2019 J1 ( Lemmon )

English version
Home page
Updated on July 29, 2019

---------------------------------------------------------------------

・ プロフィール

発見日 2019年5月4日
発見光度 17.4等
発見者 R. A. Kowalski and D. Rankin (Mount Lemmon)

・ 写真集

・ 軌道要素

Epoch 2019 Apr. 27.0 TT = JDT 2458600.5                                         
T 2019 Apr.  9.35989 TT                                 MPCLINUX                
q   2.4787209            (2000.0)            P               Q                  
z  +0.0138892      Peri.  167.80095     -0.05279154     +0.90995081             
 +/-0.0000000      Node    98.08725     -0.94757721     +0.08434429             
e   0.9655727      Incl.   24.54919     -0.31513566     -0.40604872             
From 94 observations 2019 May 4-July 27, mean residual 0".5.                    

・ 光度変化

        m1 = 12.5 + 5 logΔ + 10.0 log r

---------------------------------------------------------------------

軌道要素はM.P.E.C. 2019-O95に掲載されたものです。
光度グラフはComet for Windowsで作成したものです。

---------------------------------------------------------------------

Copyright(C) Seiichi Yoshida (comet@aerith.net). All rights reserved.